Weather History for Alliance, NE

Change the Weather History Date:

Friday, February 1, 2013

  Actual Average Record
Temperature  
Mean Temperature 32 °F 25 °F  
Max Temperature 44 °F 39 °F 72 °F (2003)
Min Temperature 19 °F 11 °F -26 °F (1918)
Degree Days  
Heating Degree Days 33 40  
Month to date heating degree days 33 40  
Since 1 July heating degree days 4102 4385  
Cooling Degree Days 0 0  
Month to date cooling degree days 0 0  
Year to date cooling degree days 0 0  
Moisture  
Dew Point 25 °F    
Average Humidity 73    
Maximum Humidity 92    
Minimum Humidity 53    
Precipitation  
Precipitation 0.00 in 0.01 in 0.29 in (1939)
Month to date precipitation 0.00 0.01  
Year to date precipitation T 0.19  
Sea Level Pressure  
Sea Level Pressure 30.10 in    
Wind  
Wind Speed 10 mph (WNW)    
Max Wind Speed 21 mph    
Max Gust Speed 25 mph    
Visibility 10 miles    
Events      
T = Trace of Precipitation, MM = Missing Value Source: NWS Daily Summary

Daily Weather History Graph

Daily Weather History Graph

Search for Another Location

Airport:

Trip Planner

Search our weather history database for the weather conditions in past years. The results will help you decide how hot, cold, wet, or windy it might be!

Date:

Astronomy

Feb. 01, 2013 Rise Set
Actual Time 7:03 AM MST 5:06 PM MST
Civil Twilight 6:34 AM MST 5:36 PM MST
Nautical Twilight 6:00 AM MST 6:09 PM MST
Astronomical Twilight 5:28 AM MST 6:42 PM MST
Moon 11:23 PM MST (2/1) 9:31 AM MST (2/1)
Length of Visible Light 11h 01m
Length of Day
10h 02m
Waning Gibbous, 69% of the Moon is Illuminated
Feb 1
Waning Gibbous
Feb 3
Last Quarter
Feb 10
New
Feb 17
First Quarter
Feb 25
Full

Hourly Weather History & Observations

Time (MST) Temp. Windchill Dew Point Humidity Pressure Visibility Wind Dir Wind Speed Gust Speed Precip Events Conditions
12:53 AM 26.1 °F 18.4 °F 19.9 °F 78% 30.20 in 10.0 mi SW 6.9 mph - N/A   Overcast
1:53 AM 26.1 °F 19.4 °F 19.9 °F 78% 30.18 in 10.0 mi WSW 5.8 mph - N/A   Overcast
2:53 AM 25.0 °F - 19.9 °F 81% 30.16 in 10.0 mi Calm Calm - N/A   Overcast
3:53 AM 26.1 °F - 21.0 °F 81% 30.13 in 10.0 mi Calm Calm - N/A   Overcast
4:53 AM 26.6 °F 22.6 °F 21.2 °F 80% 30.01 in 10.0 mi WNW 3.5 mph - N/A   Mostly Cloudy
5:53 AM 21.0 °F 9.9 °F 18.0 °F 88% 30.13 in 10.0 mi West 10.4 mph - N/A   Scattered Clouds
6:53 AM 21.0 °F 11.4 °F 17.1 °F 85% 30.12 in 10.0 mi WSW 8.1 mph - N/A   Scattered Clouds
7:53 AM 21.9 °F 12.5 °F 18.0 °F 85% 30.11 in 10.0 mi West 8.1 mph - N/A   Partly Cloudy
8:53 AM 32.0 °F 22.5 °F 24.1 °F 73% 30.08 in 10.0 mi West 12.7 mph - N/A   Mostly Cloudy
9:53 AM 36.0 °F 28.0 °F 27.0 °F 70% 30.06 in 10.0 mi West 11.5 mph - N/A   Mostly Cloudy
10:53 AM 37.0 °F 29.8 °F 28.0 °F 70% 30.05 in 10.0 mi West 10.4 mph - N/A   Mostly Cloudy
11:53 AM 41.0 °F 33.9 °F 30.0 °F 65% 30.01 in 10.0 mi West 12.7 mph - N/A   Overcast
12:53 PM 43.0 °F 38.2 °F 28.0 °F 56% 30.00 in 10.0 mi WNW 8.1 mph - N/A   Overcast
1:53 PM 43.0 °F 35.4 °F 26.1 °F 51% 30.00 in 10.0 mi NW 16.1 mph 21.9 mph N/A   Overcast
2:53 PM 42.1 °F 33.3 °F 28.0 °F 58% 30.02 in 10.0 mi NNW 19.6 mph 25.3 mph N/A   Overcast
3:53 PM 41.0 °F 35.2 °F 28.0 °F 60% 30.04 in 10.0 mi NNW 9.2 mph - N/A   Overcast
4:53 PM 37.0 °F 29.8 °F 28.9 °F 73% 30.08 in 10.0 mi NNW 10.4 mph - N/A   Clear
5:53 PM 35.1 °F 25.9 °F 28.0 °F 76% 30.13 in 10.0 mi WNW 13.8 mph - N/A   Clear
6:53 PM 30.9 °F 20.7 °F 26.1 °F 82% 30.16 in 10.0 mi WNW 13.8 mph - N/A   Clear
7:53 PM 30.9 °F 20.7 °F 28.0 °F 89% 30.18 in 10.0 mi WNW 13.8 mph - N/A   Mostly Cloudy
8:53 PM 30.9 °F 22.8 °F 28.0 °F 89% 30.17 in 10.0 mi WNW 9.2 mph - N/A   Overcast
9:53 PM 30.9 °F 22.2 °F 27.0 °F 85% 30.17 in 10.0 mi West 10.4 mph - N/A   Overcast
10:53 PM 34.0 °F 24.2 °F 28.0 °F 79% 30.17 in 10.0 mi WNW 15.0 mph - N/A   Overcast
11:53 PM 33.1 °F 23.4 °F 27.0 °F 78% 30.15 in 10.0 mi WNW 13.8 mph - N/A   Overcast